Location: Unspecified
(0.0000°N, 0.0000°E)
Time: 18:20:35
(UTC+00:00)

Envisat - Pass Details

Date: 04 October 2021
Orbit: 764 x 766 km, 98.2° (Epoch: 22 October)

Event Time Altitude Azimuth Distance (km) Brightness Sun altitude
Rises 03:36:41 0° 50° (NE) 3,215 6.8 -32.9°
Reaches altitude 10° 03:40:25 10° 78° (ENE) 2,294 6.3 -32.0°
Maximum altitude 03:42:29 12° 103° (ESE) 2,126 6.1 -31.5°
Drops below altitude 10° 03:44:33 10° 127° (SE) 2,298 6.1 -31.0°
Sets 03:48:17 0° 155° (SSE) 3,227 6.6 -30.0°
